Location: Charbonni�res
(45.9952°N, 2.9982°E)
Time: 17:48:25
(UTC+00:00)

ATLAS 3B R/B - Pass Details

Date: 29 November 2020
Orbit: 1013 x 1182 km, 63.8° (Epoch: 08 January)

Event Time Altitude Azimuth Distance (km) Brightness Sun altitude
Exits shadow 03:30:35 33° 21° (NNE) 1,734 3.9 -37.0°
Maximum altitude 03:31:24 34° 35° (NE) 1,711 3.9 -36.8°
Drops below altitude 10° 03:37:46 10° 99° (E) 2,993 5.8 -35.7°
Sets 03:40:49 0° 108° (ESE) 3,976 6.5 -35.2°
